EW6329 Weather Reports


Display with metric or nautical units.
time (UTC)temp
F
wind
direction
speed
MPH
gust
MPH
rain 1hr
in
rain 24hr
in
rain mn
in
humidity
%
barometer
mb
20260502163045 64 307 0.0 3.0 0.00 0.00 0.00 44 1016.9
20260502161600 64 317 1.0 4.0 0.00 0.00 0.00 42 1017.1
20260502151551 59 301 0.0 2.0 0.00 0.00 0.00 53 1017.1
20260502123104 46 248 0.0 0.0 0.00 0.00 0.00 87 1016.3
20260502121530 46 248 0.0 0.0 0.00 0.00 0.00 85 1016.1
20260502114535 46 248 0.0 0.0 0.00 0.00 0.00 84 1015.7
20260502113048 46 248 0.0 0.0 0.00 0.00 0.00 83 1015.6
20260502111625 46 248 0.0 0.0 0.00 0.00 0.00 82 1015.6
20260502110012 46 248 0.0 0.0 0.00 0.00 0.00 81 1015.5
20260502104525 47 248 0.0 0.0 0.00 0.00 0.00 79 1015.4
20260502103057 47 248 0.0 0.0 0.00 0.00 0.00 78 1015.2
20260502101607 47 248 0.0 0.0 0.00 0.00 0.00 77 1015.1
20260502071518 52 248 0.0 0.0 0.00 0.00 0.00 66 1015.0
20260502070033 52 248 0.0 0.0 0.00 0.00 0.00 66 1015.1
20260502064543 52 248 0.0 0.0 0.00 0.00 0.00 67 1015.3
20260502063100 52 248 0.0 0.0 0.00 0.00 0.00 67 1015.4
20260502061602 52 248 0.0 0.0 0.00 0.00 0.00 63 1015.5
20260502060018 53 248 0.0 0.0 0.00 0.00 0.00 64 1015.6
20260502054532 53 248 0.0 0.0 0.00 0.00 0.00 65 1015.7
20260502053039 53 248 0.0 0.0 0.00 0.00 0.00 67 1015.5
20260502051552 53 248 0.0 0.0 0.00 0.00 0.00 64 1015.4
20260502050003 53 248 0.0 0.0 0.00 0.00 0.00 62 1015.4
20260502044514 54 248 0.0 0.0 0.00 0.00 0.00 62 1015.3
20260502043028 54 248 0.0 0.0 0.00 0.00 0.00 62 1015.1
20260502041539 54 248 0.0 0.0 0.00 0.00 0.00 63 1014.9
20260502040053 54 248 0.0 0.0 0.00 0.00 0.00 62 1014.7
20260502034502 55 248 0.0 0.0 0.00 0.00 0.00 60 1014.7
20260502033015 55 248 0.0 0.0 0.00 0.00 0.00 58 1014.7
20260502031529 56 248 0.0 0.0 0.00 0.00 0.00 58 1014.9
20260502030042 56 248 0.0 0.0 0.00 0.00 0.00 57 1015.2
20260502024556 56 248 0.0 0.0 0.00 0.00 0.00 58 1015.4
20260502023005 57 248 0.0 0.0 0.00 0.00 0.00 59 1015.7
20260502021520 57 248 0.0 0.0 0.00 0.00 0.00 55 1015.9
20260502020034 58 248 0.0 0.0 0.00 0.00 0.00 55 1015.4
20260502014549 58 248 0.0 0.0 0.00 0.00 0.00 54 1015.5
20260502013100 59 248 0.0 0.0 0.00 0.00 0.00 51 1015.2
20260502011510 59 248 0.0 0.0 0.00 0.00 0.00 50 1014.8
20260502010024 60 248 0.0 0.0 0.00 0.00 0.00 50 1014.3
20260502004553 60 248 0.0 0.0 0.00 0.00 0.00 50 1014.4
20260502003050 61 248 0.0 0.0 0.00 0.00 0.00 51 1014.2
20260502001604 61 248 0.0 0.0 0.00 0.00 0.00 50 1014.0
20260502000013 61 248 0.0 0.0 0.00 0.00 0.00 49 1013.7
20260501234531 61 248 0.0 1.0 0.00 0.00 0.00 50 1013.4
20260501233043 62 257 0.0 0.0 0.00 0.00 0.00 49 1013.5
20260501231609 62 257 0.0 2.0 0.00 0.00 0.00 47 1013.3
20260501230018 62 258 0.0 1.0 0.00 0.00 0.00 45 1013.1
20260501224532 64 273 0.0 2.0 0.00 0.00 0.00 41 1012.7
20260501223051 64 257 0.0 3.0 0.00 0.00 0.00 42 1012.7
20260501221603 63 327 0.0 2.0 0.00 0.00 0.00 51 1012.7
20260501220009 63 333 0.0 3.0 0.00 0.00 0.00 48 1012.8
20260501214525 64 238 0.0 2.0 0.00 0.00 0.00 48 1012.6
20260501213047 63 269 0.0 1.0 0.00 0.00 0.00 48 1012.4
20260501211549 63 275 0.0 2.0 0.00 0.00 0.00 47 1012.5
20260501210103 63 265 0.0 2.0 0.00 0.00 0.00 48 1012.7
20260501204512 63 221 0.0 2.0 0.00 0.00 0.00 53 1013.0
20260501203026 63 263 0.0 2.0 0.00 0.00 0.00 53 1013.3
20260501201539 63 265 0.0 2.0 0.00 0.00 0.00 53 1013.7
20260501200052 63 282 0.0 2.0 0.00 0.00 0.00 52 1014.0
20260501194502 62 169 0.0 2.0 0.00 0.00 0.00 54 1014.4
20260501193023 63 164 0.0 2.0 0.00 0.00 0.00 54 1014.4
20260501191532 63 287 0.0 2.0 0.00 0.00 0.00 51 1014.8
20260501190041 63 242 0.0 2.0 0.00 0.00 0.00 49 1015.0
20260501184600 63 142 0.0 2.0 0.00 0.00 0.00 55 1015.1
20260501183006 63 269 0.0 2.0 0.00 0.00 0.00 51 1015.5
20260501181519 63 269 0.0 2.0 0.00 0.00 0.00 54 1015.6
20260501180037 63 276 0.0 2.0 0.00 0.00 0.00 59 1015.4
20260501174611 62 250 0.0 2.0 0.00 0.00 0.00 56 1015.4
20260501173105 62 255 0.0 2.0 0.00 0.00 0.00 57 1015.4
20260501171508 62 231 0.0 3.0 0.00 0.00 0.00 55 1015.3
20260501170022 63 244 0.0 2.0 0.00 0.00 0.00 56 1015.4
20260501164543 61 277 0.0 2.0 0.00 0.00 0.00 57 1015.5